This is the latest recevied weather packets stored in our database for station/object YB4RWH-13. If no packets are shown the sender has not sent any weather packets the latest 10 day(s).
| Time | Temp. | Humidity | Pressure | Rain* | Wind** | Luminosity | Snow |
|---|---|---|---|---|---|---|---|
| 1777616893 | 30.56° C | 66% | 1011 hPa | - | - | - | - |
| 1777616592 | 30.56° C | 68% | 1011.1 hPa | - | - | - | - |
| 1777616293 | 30.56° C | 67% | 1011.1 hPa | - | - | - | - |
| 1777615992 | 30.56° C | 67% | 1011.1 hPa | - | - | - | - |
| 1777615694 | 31.11° C | 67% | 1011.1 hPa | - | - | - | - |
| 1777615392 | 31.11° C | 66% | 1011.1 hPa | - | - | - | - |
| 1777615092 | 31.11° C | 67% | 1011.1 hPa | - | - | - | - |
| 1777614792 | 31.11° C | 67% | 1011.2 hPa | - | - | - | - |
| 1777614492 | 31.11° C | 67% | 1011.2 hPa | - | - | - | - |
| 1777614192 | 31.11° C | 67% | 1011.1 hPa | - | - | - | - |
| 1777613892 | 31.67° C | 66% | 1011.1 hPa | - | - | - | - |
| 1777613593 | 31.67° C | 65% | 1011.1 hPa | - | - | - | - |
| 1777613292 | 31.67° C | 65% | 1011 hPa | - | - | - | - |
| 1777612992 | 31.67° C | 64% | 1011 hPa | - | - | - | - |
| 1777612692 | 31.67° C | 62% | 1011.3 hPa | - | - | - | - |
| 1777612395 | 32.22° C | 63% | 1011.4 hPa | - | - | - | - |
| 1777612092 | 32.22° C | 62% | 1011.3 hPa | - | - | - | - |
| 1777611795 | 31.67° C | 62% | 1011.5 hPa | - | - | - | - |
| 1777611492 | 31.67° C | 63% | 1011.6 hPa | - | - | - | - |
| 1777611192 | 31.67° C | 65% | 1011.6 hPa | - | - | - | - |
| 1777610892 | 31.67° C | 66% | 1011.7 hPa | - | - | - | - |
| 1777610592 | 31.67° C | 67% | 1011.8 hPa | - | - | - | - |
| 1777610292 | 31.11° C | 67% | 1012 hPa | - | - | - | - |
| 1777609994 | 31.11° C | 68% | 1012.2 hPa | - | - | - | - |
| 1777609692 | 31.11° C | 68% | 1012.3 hPa | - | - | - | - |
* Rain since midnight (hover to see other rain measurements)
** Current wind speed in m/s (hover to see current wind gust speed)